GW1451 Weather Reports


Display with metric or nautical units.
time (UTC)temp
F
wind
direction
speed
MPH
gust
MPH
rain 1hr
in
rain 24hr
in
rain mn
in
humidity
%
barometer
mb
20260505041725 57 315 2.0 4.0 0.00 0.00 0.00 79 994.0
20260505041215 57 315 2.0 2.0 0.00 0.00 0.00 79 993.9
20260505040704 57 315 2.0 4.0 0.00 0.00 0.00 79 993.9
20260505040155 57 315 2.0 4.0 0.00 0.00 0.00 79 993.8
20260505035654 57 315 2.0 4.0 0.00 0.00 0.00 79 993.8
20260505035135 58 315 2.0 4.0 0.00 0.00 0.00 77 993.8
20260505034624 58 315 2.0 4.0 0.00 0.00 0.00 77 993.7
20260505034117 58 315 2.0 4.0 0.00 0.00 0.00 76 993.8
20260505033604 59 315 2.0 4.0 0.00 0.00 0.00 77 993.7
20260505033054 58 338 2.0 6.0 0.00 0.00 0.00 76 993.8
20260505032544 58 338 4.0 6.0 0.00 0.00 0.00 76 993.8
20260505032034 57 315 2.0 4.0 0.00 0.00 0.00 79 993.8
20260505031523 57 315 2.0 2.0 0.00 0.00 0.00 79 993.5
20260505031013 58 315 1.0 2.0 0.00 0.00 0.00 78 993.7
20260505030504 57 315 2.0 4.0 0.00 0.00 0.00 78 993.7
20260505025953 57 315 1.0 4.0 0.00 0.00 0.00 79 993.7
20260505025443 57 338 2.0 4.0 0.00 0.00 0.00 79 993.7
20260505024933 56 315 2.0 4.0 0.00 0.00 0.00 81 993.7
20260505024423 57 338 2.0 4.0 0.00 0.00 0.00 81 993.6
20260505023913 56 315 2.0 4.0 0.00 0.00 0.00 82 993.6
20260505023402 56 315 2.0 4.0 0.00 0.00 0.00 82 993.4
20260505022853 56 315 2.0 2.0 0.00 0.00 0.00 81 993.6
20260505021322 59 315 2.0 4.0 0.00 0.00 0.00 76 993.6
20260505020303 60 338 4.0 6.0 0.00 0.00 0.00 74 993.5
20260505015752 60 315 4.0 7.0 0.00 0.00 0.00 74 993.6
20260505014732 60 338 4.0 7.0 0.00 0.00 0.00 76 993.4
20260505013711 58 338 3.0 4.0 0.00 0.00 0.00 79 993.4
20260505013202 57 338 2.0 4.0 0.00 0.00 0.00 81 993.3
20260505012651 56 315 2.0 4.0 0.00 0.00 0.00 82 993.4
20260505011631 56 315 2.0 4.0 0.00 0.00 0.00 83 993.2
20260505011121 56 338 2.0 4.0 0.00 0.00 0.00 84 993.1
20260505010611 56 338 2.0 4.0 0.00 0.00 0.00 82 993.0
20260505005550 56 315 3.0 4.0 0.00 0.00 0.00 83 993.1
20260505005040 56 338 3.0 4.0 0.00 0.00 0.00 81 992.7
20260505004531 56 338 3.0 4.0 0.00 0.00 0.00 82 992.2
20260505004020 57 338 2.0 4.0 0.00 0.00 0.00 82 992.5
20260505002450 58 338 3.0 6.0 0.00 0.00 0.00 79 992.1
20260505001939 58 0 3.0 7.0 0.00 0.00 0.00 79 992.4
20260505001429 58 338 4.0 7.0 0.00 0.00 0.00 80 992.7
20260505000920 56 338 5.0 6.0 0.00 0.00 0.00 81 992.7
20260505000409 57 338 2.0 4.0 0.00 0.00 0.00 81 992.3
20260504234425 57 338 2.0 4.0 0.00 0.00 0.00 79 992.6
20260504233915 57 338 3.0 4.0 0.00 0.00 0.00 80 992.6
20260504233406 56 338 2.0 4.0 0.00 0.00 0.00 81 992.8
20260504232855 57 338 3.0 4.0 0.00 0.00 0.00 79 992.8
20260504232345 57 338 2.0 4.0 0.00 0.00 0.00 79 992.7
20260504231835 57 338 2.0 4.0 0.00 0.00 0.00 78 992.8
20260504231325 57 338 2.0 4.0 0.00 0.00 0.00 78 992.7
20260504230814 57 338 2.0 4.0 0.00 0.00 0.00 78 992.5
20260504230304 57 0 2.0 4.0 0.00 0.00 0.00 78 992.6
20260504225754 57 338 2.0 4.0 0.00 0.00 0.00 78 992.5
20260504225246 57 338 2.0 4.0 0.00 0.00 0.00 78 992.4
20260504223714 55 0 2.0 2.0 0.00 0.00 0.00 80 992.3
20260504223203 55 338 2.0 2.0 0.00 0.00 0.00 82 992.4
20260504222653 54 315 2.0 2.0 0.00 0.00 0.00 82 992.4
20260504222144 53 315 2.0 4.0 0.00 0.00 0.00 82 992.3
20260504221633 53 338 2.0 4.0 0.00 0.00 0.00 81 992.4
20260504220613 55 338 2.0 4.0 0.00 0.00 0.00 78 992.3
20260504220103 54 315 2.0 4.0 0.00 0.00 0.00 76 992.0
20260504215553 53 315 2.0 4.0 0.00 0.00 0.00 78 992.1
20260504215043 53 338 2.0 4.0 0.00 0.00 0.00 76 992.0
20260504214534 55 315 3.0 4.0 0.00 0.00 0.00 74 992.1
20260504214023 55 315 2.0 4.0 0.00 0.00 0.00 73 992.0
20260504213513 55 315 2.0 2.0 0.00 0.00 0.00 72 991.9
20260504213004 55 315 0.0 2.0 0.00 0.00 0.00 72 991.7
20260504212452 55 315 1.0 2.0 0.00 0.00 0.00 72 991.9
20260504211432 57 315 2.0 2.0 0.00 0.00 0.00 69 991.6
20260504210921 58 315 1.0 2.0 0.00 0.00 0.00 69 991.6
20260504210411 58 315 1.0 2.0 0.00 0.00 0.00 69 991.3
20260504205902 59 315 2.0 4.0 0.00 0.00 0.00 67 991.5
20260504205352 61 338 2.0 4.0 0.00 0.00 0.00 63 991.5
20260504204331 64 338 4.0 6.0 0.00 0.00 0.00 58 991.5
20260504203311 65 338 3.0 6.0 0.00 0.00 0.00 55 991.4
20260504202802 65 315 2.0 6.0 0.00 0.00 0.00 55 991.3
20260504202251 65 315 2.0 6.0 0.00 0.00 0.00 55 991.3
20260504201740 65 270 4.0 8.0 0.00 0.00 0.00 54 991.4
20260504201231 67 315 4.0 8.0 0.00 0.00 0.00 51 991.1
20260504200720 67 293 4.0 9.0 0.00 0.00 0.00 50 991.0
20260504200210 67 315 4.0 9.0 0.00 0.00 0.00 50 991.1
20260504195150 68 315 5.0 9.0 0.00 0.00 0.00 50 991.1
20260504194639 68 270 6.0 9.0 0.00 0.00 0.00 49 991.1
20260504194130 68 315 5.0 11.0 0.00 0.00 0.00 50 991.0
20260504193620 68 293 4.0 11.0 0.00 0.00 0.00 49 991.1
20260504193109 68 293 5.0 11.0 0.00 0.00 0.00 48 991.0
20260504192559 69 315 4.0 11.0 0.00 0.00 0.00 49 991.2
20260504192050 69 293 6.0 11.0 0.00 0.00 0.00 48 991.2
20260504190519 69 315 7.0 11.0 0.00 0.00 0.00 48 991.0
20260504190018 69 270 6.0 11.0 0.00 0.00 0.00 47 990.8
20260504185459 69 315 6.0 11.0 0.00 0.00 0.00 46 990.8
20260504184948 69 315 4.0 8.0 0.00 0.00 0.00 47 990.7
20260504183929 69 270 6.0 13.0 0.00 0.00 0.00 47 990.9
20260504183419 69 293 5.0 14.0 0.00 0.00 0.00 47 990.9
20260504182908 69 338 4.0 14.0 0.00 0.00 0.00 47 990.9
20260504181848 69 293 2.0 11.0 0.00 0.00 0.00 48 991.0
20260504181338 69 248 4.0 11.0 0.00 0.00 0.00 50 991.0
20260504180827 69 293 4.0 13.0 0.00 0.00 0.00 49 991.1
20260504180317 69 270 7.0 13.0 0.00 0.00 0.00 48 990.9
20260504175808 69 338 6.0 11.0 0.00 0.00 0.00 48 991.1
20260504175257 69 293 5.0 11.0 0.00 0.00 0.00 47 991.1
20260504174748 69 293 7.0 14.0 0.00 0.00 0.00 47 991.0
20260504173727 69 338 4.0 11.0 0.00 0.00 0.00 49 991.0
20260504173217 69 248 3.0 11.0 0.00 0.00 0.00 49 991.1
20260504172707 69 315 7.0 11.0 0.00 0.00 0.00 48 991.0
20260504172157 69 293 8.0 14.0 0.00 0.00 0.00 48 991.2
20260504171646 68 293 9.0 14.0 0.00 0.00 0.00 49 991.5
20260504171136 68 315 5.0 14.0 0.00 0.00 0.00 50 991.5
20260504170626 67 293 7.0 14.0 0.00 0.00 0.00 50 991.5
20260504170116 67 315 9.0 14.0 0.00 0.00 0.00 52 991.3
20260504150734 64 315 4.0 13.0 0.00 0.00 0.00 57 992.3
20260504150223 64 315 6.0 15.0 0.00 0.00 0.00 55 992.3
20260504141043 62 293 7.0 14.0 0.00 0.00 0.00 57 992.5
20260504140532 62 293 8.0 15.0 0.00 0.00 0.00 57 992.7
20260504130331 57 293 8.0 11.0 0.00 0.00 0.00 64 992.4
20260504120130 55 315 8.0 15.0 0.00 0.00 0.00 64 992.5
20260504110439 53 315 8.0 11.0 0.00 0.00 0.00 66 992.4
20260504100237 54 315 8.0 16.0 0.00 0.00 0.00 62 992.7
20260504080854 53 315 15.0 22.0 0.00 0.00 0.00 60 991.9
20260504080148 53 338 15.0 0.0 0.00 0.00 0.00 60 991.6
20260504060207 54 338 16.0 29.0 0.00 0.00 0.00 58 992.4
20260504050515 53 338 16.0 27.0 0.00 0.00 0.00 57 992.9
20260504050016 53 315 15.0 23.0 0.00 0.00 0.00 57 992.9
20260504045455 53 0 12.0 20.0 0.00 0.00 0.00 58 992.8
20260504044946 54 315 11.0 21.0 0.00 0.00 0.00 56 992.8